Regional Weather Roundup
Issued by NWS

Home | Current Version | Previous Version | Graphics & Text | Print | Product List | Glossary Off
Versions: 1 2 3 4 5 6 7 8 9 10 11 12 13 14 15 16 17 18 19 20 21 22 23 24 25 26 27 28 29 30 31 32 33 34 35 36 37 38 39 40 41 42 43 44 45 46 47 48 49 50

000
ASUS43 KTOP 280659
RWRKS

WEATHER ROUNDUP FOR KANSAS
NATIONAL WEATHER SERVICE GOODLAND KS
200 AM CDT WED SEP 28 2016

NOTE:  "FAIR" INDICATES FEW OR NO CLOUDS BELOW 12,000 FEET WITH NO
SIGNIFICANT WEATHER AND/OR OBSTRUCTIONS TO VISIBILITY.

KSZ001>006-013>018-027>032-041>047-280800-
NORTHWEST KANSAS

CITY           SKY/WX    TMP DP  RH WIND       PRES   REMARKS
GOODLAND       CLEAR     49  39  68 W6        30.09R
HAYS           CLEAR     54  43  66 NW5       29.96S
HILL CITY      CLEAR     56  46  69 W5        30.01R
RUSSELL        CLEAR     59  49  69 SW9       29.94R
$$

KSZ061>065-074>080-084>089-280800-
SOUTHWEST KANSAS

CITY           SKY/WX    TMP DP  RH WIND       PRES   REMARKS
DODGE CITY     CLEAR     65  40  39 W12       30.01F
ELKHART          N/A     62  34  35 W7          N/A
GARDEN CITY    CLEAR     58  39  49 W8        30.03S
GREAT BEND     CLEAR     54  45  71 W8        29.96S
LIBERAL        CLEAR     55  37  50 W8        30.06S
$$

KSZ066>073-081>083-090>101-280800-
SOUTHEAST KANSAS

CITY           SKY/WX    TMP DP  RH WIND       PRES   REMARKS
CHANUTE        CLEAR     60  54  80 SW8       29.90F
COFFEYVILLE    CLEAR     60  52  74 S6        29.93F
HUTCHINSON     CLEAR     56  55  97 W3        29.93F
MEDICINE LODGE   N/A     56  53  90 CALM      29.96S
PARSONS        CLEAR     53  52  96 CALM      29.93F
WICHITA INTL   CLEAR     61  55  81 SW8       29.92F
WICHITA JABRA  CLEAR     65  55  70 SW12      29.92F
WICHITA MCCONL CLEAR     60  54  80 SW8       29.93S
WINFIELD       CLEAR     61  53  75 SW8       29.95F
$$

KSZ007>012-019>026-033>040-048>060-102>105-280800-
NORTHEAST KANSAS

CITY           SKY/WX    TMP DP  RH WIND       PRES   REMARKS
CONCORDIA      CLEAR     58  52  80 NW6       29.93R
EMPORIA        CLEAR     65  55  70 SW10      29.89F
LAWRENCE       CLEAR     54  53  97 NW6       29.88R
MANHATTAN      CLEAR     56  54  93 CALM      29.89S
OLATHE IND     CLEAR     63  56  78 SW7       29.88S
OLATHE EXE     CLEAR     64  54  69 W6        29.87F
SALINA         CLEAR     64  53  67 CALM      29.91S
TOPEKA BILLARD CLEAR     57  55  93 CALM      29.88R
TOPEKA FORBES  CLEAR     63  55  75 SW7       29.88S
$$




USA.gov is the U.S. government's official web portal to all federal, state and local government web resources and services.